Time,TemperatureF,DewpointF,PressureIn,WindDirection,WindDirectionDegrees,WindSpeedMPH,WindSpeedGustMPH,Humidity,HourlyPrecipIn,Conditions,Clouds,dailyrainin,SoftwareType,DateUTC
2013-01-21 00:00:00,23.5,15.2,30.04,NW,320,13.8,13.8,70,0.00,-SN,,0.00,WeatherDisplay:10.37,2013-01-21 05:00:00,
2013-01-21 00:02:00,23.4,15.0,30.04,NW,320,13.8,13.8,70,0.00,-SN,,0.00,WeatherDisplay:10.37,2013-01-21 05:02:00,
2013-01-21 00:03:00,23.4,15.0,30.04,NW,320,13.8,13.8,70,0.00,-SN,,0.00,WeatherDisplay:10.37,2013-01-21 05:03:00,
2013-01-21 00:04:00,23.2,14.8,30.04,NW,320,13.8,13.8,70,0.00,-SN,,0.00,WeatherDisplay:10.37,2013-01-21 05:04:00,
2013-01-21 00:09:00,23.4,15.0,30.04,NW,320,13.8,13.8,70,0.00,-SN,,0.00,WeatherDisplay:10.37,2013-01-21 05:09:00,
2013-01-21 00:14:00,23.2,14.8,30.04,NW,320,13.8,13.8,70,0.00,-SN,,0.00,WeatherDisplay:10.37,2013-01-21 05:14:00,
2013-01-21 00:19:00,23.0,10.8,30.04,NW,310,15.0,23.0,59,0.00,-SN,,0.00,WeatherDisplay:10.37,2013-01-21 05:19:00,
2013-01-21 00:24:00,23.0,10.8,30.04,NW,310,15.0,23.0,59,0.00,-SN,,0.00,WeatherDisplay:10.37,2013-01-21 05:24:00,
2013-01-21 00:29:00,23.0,10.8,30.04,NW,310,15.0,23.0,59,0.00,-SN,,0.00,WeatherDisplay:10.37,2013-01-21 05:29:00,
2013-01-21 00:34:00,23.0,10.8,30.04,NW,310,15.0,23.0,59,0.00,-SN,,0.00,WeatherDisplay:10.37,2013-01-21 05:34:00,
2013-01-21 00:39:00,22.6,10.4,30.04,NW,310,15.0,23.0,59,0.00,-SN,,0.00,WeatherDisplay:10.37,2013-01-21 05:39:00,
2013-01-21 00:44:00,22.6,10.4,30.04,NW,310,15.0,23.0,59,0.00,-SN,,0.00,WeatherDisplay:10.37,2013-01-21 05:44:00,
2013-01-21 00:49:00,22.5,10.3,30.04,NW,310,15.0,23.0,59,0.00,-SN,,0.00,WeatherDisplay:10.37,2013-01-21 05:49:00,
2013-01-21 00:54:00,22.5,10.3,30.04,NW,310,15.0,23.0,59,0.00,-SN,,0.00,WeatherDisplay:10.37,2013-01-21 05:54:00,
2013-01-21 00:59:00,22.5,10.3,30.04,NW,310,15.0,23.0,59,0.00,-SN,,0.00,WeatherDisplay:10.37,2013-01-21 05:59:00,
2013-01-21 01:04:00,22.3,13.0,30.04,NW,310,6.9,6.9,67,0.00,SCT,,0.00,WeatherDisplay:10.37,2013-01-21 06:04:00,
2013-01-21 01:09:00,22.3,13.0,30.04,NW,310,6.9,6.9,67,0.00,SCT,,0.00,WeatherDisplay:10.37,2013-01-21 06:09:00,
2013-01-21 01:14:00,22.1,12.8,30.04,NW,310,6.9,6.9,67,0.00,SCT,,0.00,WeatherDisplay:10.37,2013-01-21 06:14:00,
2013-01-21 01:19:00,21.9,12.6,30.04,NW,310,6.9,6.9,67,0.00,SCT,,0.00,WeatherDisplay:10.37,2013-01-21 06:19:00,
2013-01-21 01:24:00,21.9,12.6,30.04,NW,310,6.9,6.9,67,0.00,SCT,,0.00,WeatherDisplay:10.37,2013-01-21 06:24:00,
2013-01-21 01:29:00,21.9,12.6,30.07,NW,310,6.9,6.9,67,0.00,SCT,,0.00,WeatherDisplay:10.37,2013-01-21 06:29:00,
2013-01-21 01:34:00,21.7,12.5,30.07,NW,310,6.9,6.9,67,0.00,SCT,,0.00,WeatherDisplay:10.37,2013-01-21 06:34:00,
2013-01-21 01:39:00,21.7,12.5,30.07,NW,310,6.9,6.9,67,0.00,SCT,,0.00,WeatherDisplay:10.37,2013-01-21 06:39:00,
2013-01-21 01:44:00,21.7,12.5,30.07,NW,310,6.9,6.9,67,0.00,SCT,,0.00,WeatherDisplay:10.37,2013-01-21 06:44:00,
2013-01-21 01:49:00,21.7,12.5,30.07,NW,310,6.9,6.9,67,0.00,SCT,,0.00,WeatherDisplay:10.37,2013-01-21 06:49:00,
2013-01-21 01:54:00,21.9,12.6,30.07,NW,310,6.9,6.9,67,0.00,SCT,,0.00,WeatherDisplay:10.37,2013-01-21 06:54:00,
2013-01-21 01:59:00,21.9,12.6,30.07,NW,310,6.9,6.9,67,0.00,SCT,,0.00,WeatherDisplay:10.37,2013-01-21 06:59:00,
2013-01-21 02:04:00,21.9,12.6,30.07,NW,320,3.5,3.5,67,0.00,OVC,,0.00,WeatherDisplay:10.37,2013-01-21 07:04:00,
2013-01-21 02:09:00,21.9,12.6,30.07,NW,320,3.5,3.5,67,0.00,OVC,,0.00,WeatherDisplay:10.37,2013-01-21 07:09:00,
2013-01-21 02:14:00,21.7,12.5,30.07,NW,320,3.5,3.5,67,0.00,OVC,,0.00,WeatherDisplay:10.37,2013-01-21 07:14:00,
2013-01-21 02:19:00,21.6,12.3,30.07,NW,320,3.5,3.5,67,0.00,OVC,,0.00,WeatherDisplay:10.37,2013-01-21 07:19:00,
2013-01-21 02:24:00,21.6,12.3,30.07,NW,320,3.5,3.5,67,0.00,OVC,,0.00,WeatherDisplay:10.37,2013-01-21 07:24:00,
2013-01-21 02:29:00,21.4,12.1,30.07,NW,320,3.5,3.5,67,0.00,OVC,,0.00,WeatherDisplay:10.37,2013-01-21 07:29:00,
2013-01-21 02:34:00,21.4,12.1,30.07,NW,320,3.5,3.5,67,0.00,OVC,,0.00,WeatherDisplay:10.37,2013-01-21 07:34:00,
2013-01-21 02:39:00,21.2,11.9,30.07,NW,320,3.5,3.5,67,0.00,OVC,,0.00,WeatherDisplay:10.37,2013-01-21 07:39:00,
2013-01-21 02:44:00,21.0,11.8,30.07,NW,320,3.5,3.5,67,0.00,OVC,,0.00,WeatherDisplay:10.37,2013-01-21 07:44:00,
2013-01-21 02:49:00,21.0,11.8,30.07,NW,320,3.5,3.5,67,0.00,OVC,,0.00,WeatherDisplay:10.37,2013-01-21 07:49:00,
2013-01-21 02:54:00,21.2,11.9,30.07,NW,320,3.5,3.5,67,0.00,OVC,,0.00,WeatherDisplay:10.37,2013-01-21 07:54:00,
2013-01-21 02:59:00,21.4,12.1,30.07,NW,320,3.5,3.5,67,0.00,OVC,,0.00,WeatherDisplay:10.37,2013-01-21 07:59:00,
2013-01-21 03:04:00,21.4,12.1,30.07,NW,320,0.0,0.0,67,0.00,BKN,,0.00,WeatherDisplay:10.37,2013-01-21 08:04:00,
2013-01-21 03:09:00,21.6,12.3,30.07,NW,320,0.0,0.0,67,0.00,BKN,,0.00,WeatherDisplay:10.37,2013-01-21 08:09:00,
2013-01-21 03:15:00,21.6,12.3,30.07,NW,320,0.0,0.0,67,0.00,BKN,,0.00,WeatherDisplay:10.37,2013-01-21 08:15:00,
2013-01-21 03:20:00,21.6,12.3,30.07,NW,320,0.0,0.0,67,0.00,BKN,,0.00,WeatherDisplay:10.37,2013-01-21 08:20:00,
2013-01-21 03:25:00,21.7,12.5,30.07,NW,320,0.0,0.0,67,0.00,BKN,,0.00,WeatherDisplay:10.37,2013-01-21 08:25:00,
2013-01-21 03:30:00,21.6,12.3,30.07,NW,320,0.0,0.0,67,0.00,BKN,,0.00,WeatherDisplay:10.37,2013-01-21 08:30:00,
2013-01-21 03:35:00,21.6,12.3,30.07,NW,320,0.0,0.0,67,0.00,BKN,,0.00,WeatherDisplay:10.37,2013-01-21 08:35:00,
2013-01-21 03:40:00,21.6,12.3,30.07,NW,320,0.0,0.0,67,0.00,BKN,,0.00,WeatherDisplay:10.37,2013-01-21 08:40:00,
2013-01-21 03:45:00,21.6,12.3,30.07,NW,320,0.0,0.0,67,0.00,BKN,,0.00,WeatherDisplay:10.37,2013-01-21 08:45:00,
2013-01-21 03:50:00,21.6,12.3,30.07,NW,320,0.0,0.0,67,0.00,BKN,,0.00,WeatherDisplay:10.37,2013-01-21 08:50:00,
2013-01-21 03:55:00,21.7,12.5,30.07,NW,320,0.0,0.0,67,0.00,BKN,,0.00,WeatherDisplay:10.37,2013-01-21 08:55:00,
2013-01-21 04:00:00,21.7,12.5,30.07,NW,320,0.0,0.0,67,0.00,BKN,,0.00,WeatherDisplay:10.37,2013-01-21 09:00:00,
2013-01-21 04:05:00,21.7,11.4,30.07,NW,320,0.0,0.0,64,0.00,BKN,,0.00,WeatherDisplay:10.37,2013-01-21 09:05:00,
2013-01-21 04:10:00,21.7,11.4,30.07,NW,320,0.0,0.0,64,0.00,BKN,,0.00,WeatherDisplay:10.37,2013-01-21 09:10:00,
2013-01-21 04:15:00,21.6,11.3,30.07,NW,320,0.0,0.0,64,0.00,BKN,,0.00,WeatherDisplay:10.37,2013-01-21 09:15:00,
2013-01-21 04:20:00,21.6,11.3,30.07,NW,320,0.0,0.0,64,0.00,BKN,,0.00,WeatherDisplay:10.37,2013-01-21 09:20:00,
2013-01-21 04:25:00,21.7,11.4,30.07,NW,320,0.0,0.0,64,0.00,BKN,,0.00,WeatherDisplay:10.37,2013-01-21 09:25:00,
2013-01-21 04:30:00,21.7,11.4,30.07,NW,320,0.0,0.0,64,0.00,BKN,,0.00,WeatherDisplay:10.37,2013-01-21 09:30:00,
2013-01-21 04:35:00,21.7,11.4,30.07,NW,320,0.0,0.0,64,0.00,BKN,,0.00,WeatherDisplay:10.37,2013-01-21 09:35:00,
2013-01-21 04:40:00,21.6,11.3,30.07,NW,320,0.0,0.0,64,0.00,BKN,,0.00,WeatherDisplay:10.37,2013-01-21 09:40:00,
2013-01-21 04:45:00,21.7,11.4,30.07,NW,320,0.0,0.0,64,0.00,BKN,BKN,0.00,WeatherDisplay:10.37,2013-01-21 09:45:00,
2013-01-21 04:50:00,21.7,11.4,30.07,NW,320,0.0,0.0,64,0.00,BKN,,0.00,WeatherDisplay:10.37,2013-01-21 09:50:00,
2013-01-21 04:55:00,21.7,11.4,30.07,NW,320,0.0,0.0,64,0.00,BKN,BKN,0.00,WeatherDisplay:10.37,2013-01-21 09:55:00,
2013-01-21 05:00:00,21.7,11.4,30.07,NW,320,0.0,0.0,64,0.00,BKN,BKN,0.00,WeatherDisplay:10.37,2013-01-21 10:00:00,
2013-01-21 05:05:00,21.7,12.5,30.07,WSW,256,5.0,5.0,67,0.00,-SN,-SN,0.00,WeatherDisplay:10.37,2013-01-21 10:05:00,
2013-01-21 05:10:00,21.7,12.5,30.07,WSW,240,5.0,5.0,67,0.00,-SN,-SN,0.00,WeatherDisplay:10.37,2013-01-21 10:10:00,
2013-01-21 05:15:00,21.7,12.5,30.07,WSW,240,5.0,5.0,67,0.00,-SN,-SN,0.00,WeatherDisplay:10.37,2013-01-21 10:15:00,
2013-01-21 05:20:00,21.6,12.3,30.07,WSW,240,5.0,5.0,67,0.00,-SN,-SN,0.00,WeatherDisplay:10.37,2013-01-21 10:20:00,
2013-01-21 05:25:00,21.7,12.5,30.07,WSW,240,5.0,5.0,67,0.00,-SN,-SN,0.00,WeatherDisplay:10.37,2013-01-21 10:25:00,
2013-01-21 05:30:00,21.7,12.5,30.07,WSW,240,5.0,5.0,67,0.00,-SN,-SN,0.00,WeatherDisplay:10.37,2013-01-21 10:30:00,
2013-01-21 05:35:00,21.7,12.5,30.07,WSW,240,5.0,5.0,67,0.00,-SN,-SN,0.00,WeatherDisplay:10.37,2013-01-21 10:35:00,
2013-01-21 05:40:00,21.7,12.5,30.07,WSW,240,5.0,5.0,67,0.00,-SN,-SN,0.00,WeatherDisplay:10.37,2013-01-21 10:40:00,
2013-01-21 05:45:00,21.9,12.6,30.10,WSW,240,5.0,5.0,67,0.00,-SN,-SN,0.00,WeatherDisplay:10.37,2013-01-21 10:45:00,
2013-01-21 05:50:00,21.9,12.6,30.10,WSW,240,5.0,5.0,67,0.00,-SN,-SN,0.00,WeatherDisplay:10.37,2013-01-21 10:50:00,
2013-01-21 05:55:00,21.7,12.5,30.10,WSW,240,4.6,4.6,67,0.00,-SN,,0.00,WeatherDisplay:10.37,2013-01-21 10:55:00,
2013-01-21 06:00:00,21.7,12.5,30.07,WSW,240,4.6,4.6,67,0.00,-SN,,0.00,WeatherDisplay:10.37,2013-01-21 11:00:00,
2013-01-21 06:05:00,21.7,11.4,30.07,WSW,250,5.8,5.8,64,0.00,-SN,,0.00,WeatherDisplay:10.37,2013-01-21 11:05:00,
2013-01-21 06:10:00,21.6,11.3,30.07,WSW,250,5.8,5.8,64,0.00,-SN,,0.00,WeatherDisplay:10.37,2013-01-21 11:10:00,
2013-01-21 06:15:00,21.4,11.1,30.07,WSW,250,5.8,5.8,64,0.00,-SN,,0.00,WeatherDisplay:10.37,2013-01-21 11:15:00,
2013-01-21 06:20:00,21.2,10.9,30.07,WSW,250,5.8,5.8,64,0.00,-SN,,0.00,WeatherDisplay:10.37,2013-01-21 11:20:00,
2013-01-21 06:25:00,21.2,10.9,30.07,WSW,250,5.8,5.8,64,0.00,-SN,,0.00,WeatherDisplay:10.37,2013-01-21 11:25:00,
2013-01-21 06:30:00,21.0,10.7,30.07,WSW,250,5.8,5.8,64,0.00,-SN,,0.00,WeatherDisplay:10.37,2013-01-21 11:30:00,
2013-01-21 06:35:00,20.8,10.6,30.07,WSW,250,5.8,5.8,64,0.00,-SN,,0.00,WeatherDisplay:10.37,2013-01-21 11:35:00,
2013-01-21 06:40:00,20.8,10.6,30.07,WSW,250,5.8,5.8,64,0.00,-SN,,0.00,WeatherDisplay:10.37,2013-01-21 11:40:00,
2013-01-21 06:45:00,20.8,10.6,30.07,WSW,250,5.8,5.8,64,0.00,-SN,,0.00,WeatherDisplay:10.37,2013-01-21 11:45:00,
2013-01-21 06:50:00,20.8,10.6,30.07,WSW,250,5.8,5.8,64,0.00,-SN,,0.00,WeatherDisplay:10.37,2013-01-21 11:50:00,
2013-01-21 06:55:00,20.3,10.1,30.07,WSW,250,5.8,5.8,64,0.00,-SN,,0.00,WeatherDisplay:10.37,2013-01-21 11:55:00,
2013-01-21 07:00:00,20.1,9.9,30.07,WSW,250,5.8,5.8,64,0.00,-SN,,0.00,WeatherDisplay:10.37,2013-01-21 12:00:00,
2013-01-21 07:05:00,20.1,9.9,30.07,WSW,250,0.0,0.0,64,0.00,BKN,,0.00,WeatherDisplay:10.37,2013-01-21 12:05:00,
2013-01-21 07:10:00,19.9,9.7,30.07,WSW,250,0.0,0.0,64,0.00,BKN,,0.00,WeatherDisplay:10.37,2013-01-21 12:10:00,
2013-01-21 07:15:00,19.6,9.4,30.07,WSW,250,0.0,0.0,64,0.00,BKN,,0.00,WeatherDisplay:10.37,2013-01-21 12:15:00,
2013-01-21 07:20:00,19.6,9.4,30.07,WSW,250,0.0,0.0,64,0.00,BKN,,0.00,WeatherDisplay:10.37,2013-01-21 12:20:00,
2013-01-21 07:25:00,19.6,9.4,30.07,WSW,250,0.0,0.0,64,0.00,BKN,,0.00,WeatherDisplay:10.37,2013-01-21 12:25:00,
2013-01-21 07:30:00,19.6,9.4,30.07,WSW,250,0.0,0.0,64,0.00,BKN,,0.00,WeatherDisplay:10.37,2013-01-21 12:30:00,
2013-01-21 07:35:00,19.4,9.2,30.07,WSW,250,0.0,0.0,64,0.00,BKN,,0.00,WeatherDisplay:10.37,2013-01-21 12:35:00,
2013-01-21 07:40:00,19.4,9.2,30.07,WSW,250,0.0,0.0,64,0.00,BKN,,0.00,WeatherDisplay:10.37,2013-01-21 12:40:00,
2013-01-21 07:45:00,19.4,9.2,30.07,WSW,250,0.0,0.0,64,0.00,BKN,,0.00,WeatherDisplay:10.37,2013-01-21 12:45:00,
2013-01-21 07:50:00,19.4,9.2,30.07,WSW,250,0.0,0.0,64,0.00,BKN,,0.00,WeatherDisplay:10.37,2013-01-21 12:50:00,
2013-01-21 07:55:00,19.2,9.0,30.07,WSW,250,0.0,0.0,64,0.00,BKN,,0.00,WeatherDisplay:10.37,2013-01-21 12:55:00,
2013-01-21 08:00:00,19.4,9.2,30.07,WSW,250,0.0,0.0,64,0.00,BKN,,0.00,WeatherDisplay:10.37,2013-01-21 13:00:00,
2013-01-21 08:05:00,19.6,10.4,30.07,WSW,250,0.0,0.0,67,0.00,BKN,,0.00,WeatherDisplay:10.37,2013-01-21 13:05:00,
2013-01-21 08:10:00,19.6,10.4,30.07,WSW,250,0.0,0.0,67,0.00,BKN,,0.00,WeatherDisplay:10.37,2013-01-21 13:10:00,
2013-01-21 08:15:00,19.8,10.6,30.10,WSW,250,0.0,0.0,67,0.00,BKN,,0.00,WeatherDisplay:10.37,2013-01-21 13:15:00,
2013-01-21 08:20:00,19.8,10.6,30.10,WSW,250,0.0,0.0,67,0.00,BKN,,0.00,WeatherDisplay:10.37,2013-01-21 13:20:00,
2013-01-21 08:25:00,20.1,10.9,30.10,WSW,250,0.0,0.0,67,0.00,BKN,,0.00,WeatherDisplay:10.37,2013-01-21 13:25:00,
2013-01-21 08:30:00,20.3,11.1,30.10,WSW,250,0.0,0.0,67,0.00,BKN,,0.00,WeatherDisplay:10.37,2013-01-21 13:30:00,
2013-01-21 08:35:00,20.5,11.3,30.10,WSW,250,0.0,0.0,67,0.00,BKN,,0.00,WeatherDisplay:10.37,2013-01-21 13:35:00,
2013-01-21 08:40:00,20.5,11.3,30.10,WSW,250,0.0,0.0,67,0.00,BKN,,0.00,WeatherDisplay:10.37,2013-01-21 13:40:00,
2013-01-21 08:45:00,20.5,11.3,30.10,WSW,250,0.0,0.0,67,0.00,BKN,,0.00,WeatherDisplay:10.37,2013-01-21 13:45:00,
2013-01-21 08:50:00,20.5,11.3,30.10,WSW,250,0.0,0.0,67,0.00,BKN,,0.00,WeatherDisplay:10.37,2013-01-21 13:50:00,
2013-01-21 08:55:00,21.2,11.9,30.10,WSW,250,0.0,0.0,67,0.00,BKN,,0.00,WeatherDisplay:10.37,2013-01-21 13:55:00,
2013-01-21 09:00:00,21.6,12.3,30.07,WSW,250,0.0,0.0,67,0.00,BKN,,0.00,WeatherDisplay:10.37,2013-01-21 14:00:00,
2013-01-21 09:05:00,21.6,12.3,30.07,WSW,250,0.0,0.0,67,0.00,BKN,,0.00,WeatherDisplay:10.37,2013-01-21 14:05:00,
2013-01-21 09:10:00,21.9,12.6,30.07,WSW,250,0.0,0.0,67,0.00,BKN,,0.00,WeatherDisplay:10.37,2013-01-21 14:10:00,
2013-01-21 09:15:00,22.1,12.8,30.07,WSW,250,0.0,0.0,67,0.00,BKN,,0.00,WeatherDisplay:10.37,2013-01-21 14:15:00,
2013-01-21 09:20:00,22.3,14.0,30.07,WSW,250,0.0,0.0,70,0.00,BKN,,0.00,WeatherDisplay:10.37,2013-01-21 14:20:00,
2013-01-21 09:25:00,22.3,14.0,30.07,WSW,250,0.0,0.0,70,0.00,BKN,,0.00,WeatherDisplay:10.37,2013-01-21 14:25:00,
2013-01-21 09:30:00,22.5,14.1,30.07,WSW,250,0.0,0.0,70,0.00,BKN,,0.00,WeatherDisplay:10.37,2013-01-21 14:30:00,
2013-01-21 09:35:00,22.5,14.1,30.07,WSW,250,0.0,0.0,70,0.00,BKN,,0.00,WeatherDisplay:10.37,2013-01-21 14:35:00,
2013-01-21 09:40:00,22.6,14.3,30.07,WSW,250,0.0,0.0,70,0.00,BKN,,0.00,WeatherDisplay:10.37,2013-01-21 14:40:00,
2013-01-21 09:45:00,23.2,14.8,30.07,WSW,250,0.0,0.0,70,0.00,BKN,,0.00,WeatherDisplay:10.37,2013-01-21 14:45:00,
2013-01-21 09:50:00,23.5,15.2,30.07,WSW,250,0.0,0.0,70,0.00,BKN,,0.00,WeatherDisplay:10.37,2013-01-21 14:50:00,
2013-01-21 09:55:00,23.7,15.4,30.07,WSW,250,0.0,0.0,70,0.00,BKN,,0.00,WeatherDisplay:10.37,2013-01-21 14:55:00,
2013-01-21 10:00:00,24.1,15.7,30.07,WSW,250,0.0,0.0,70,0.00,BKN,,0.00,WeatherDisplay:10.37,2013-01-21 15:00:00,
2013-01-21 10:05:00,24.1,13.7,30.07,WSW,250,0.0,0.0,64,0.00,BKN,,0.00,WeatherDisplay:10.37,2013-01-21 15:05:00,
2013-01-21 10:10:00,24.8,14.3,30.07,WSW,250,0.0,0.0,64,0.00,BKN,,0.00,WeatherDisplay:10.37,2013-01-21 15:10:00,
2013-01-21 10:15:00,24.8,14.3,30.07,WSW,250,0.0,0.0,64,0.00,BKN,,0.00,WeatherDisplay:10.37,2013-01-21 15:15:00,
2013-01-21 10:20:00,25.3,14.9,30.07,WSW,250,0.0,0.0,64,0.00,BKN,,0.00,WeatherDisplay:10.37,2013-01-21 15:20:00,
2013-01-21 10:25:00,25.3,14.9,30.07,WSW,250,0.0,0.0,64,0.00,BKN,,0.00,WeatherDisplay:10.37,2013-01-21 15:25:00,
2013-01-21 10:30:00,25.3,14.9,30.07,WSW,250,0.0,0.0,64,0.00,BKN,,0.00,WeatherDisplay:10.37,2013-01-21 15:30:00,
2013-01-21 10:35:00,25.9,15.4,30.07,WSW,250,0.0,0.0,64,0.00,BKN,,0.00,WeatherDisplay:10.37,2013-01-21 15:35:00,
2013-01-21 10:40:00,25.9,15.4,30.07,WSW,250,0.0,0.0,64,0.00,BKN,,0.00,WeatherDisplay:10.37,2013-01-21 15:40:00,
2013-01-21 10:45:00,26.1,15.5,30.07,WSW,250,0.0,0.0,64,0.00,BKN,,0.00,WeatherDisplay:10.37,2013-01-21 15:45:00,
2013-01-21 10:50:00,26.2,15.7,30.07,WSW,250,0.0,0.0,64,0.00,BKN,,0.00,WeatherDisplay:10.37,2013-01-21 15:50:00,
2013-01-21 10:55:00,26.4,15.9,30.07,WSW,250,0.0,0.0,64,0.00,BKN,,0.00,WeatherDisplay:10.37,2013-01-21 15:55:00,
2013-01-21 11:00:00,26.4,15.9,30.04,WSW,250,0.0,0.0,64,0.00,BKN,,0.00,WeatherDisplay:10.37,2013-01-21 16:00:00,
2013-01-21 11:05:00,27.0,13.3,30.04,WSW,250,0.0,0.0,56,0.00,BKN,,0.00,WeatherDisplay:10.37,2013-01-21 16:05:00,
2013-01-21 11:10:00,27.1,13.5,30.04,WSW,250,0.0,0.0,56,0.00,BKN,,0.00,WeatherDisplay:10.37,2013-01-21 16:10:00,
2013-01-21 11:15:00,27.5,13.8,30.04,WSW,250,0.0,0.0,56,0.00,BKN,,0.00,WeatherDisplay:10.37,2013-01-21 16:15:00,
2013-01-21 11:20:00,27.9,14.2,30.04,WSW,250,0.0,0.0,56,0.00,BKN,,0.00,WeatherDisplay:10.37,2013-01-21 16:20:00,
2013-01-21 11:25:00,27.9,14.2,30.04,WSW,250,0.0,0.0,56,0.00,BKN,,0.00,WeatherDisplay:10.37,2013-01-21 16:25:00,
2013-01-21 11:30:00,28.0,14.3,30.04,WSW,250,0.0,0.0,56,0.00,BKN,,0.00,WeatherDisplay:10.37,2013-01-21 16:30:00,
2013-01-21 11:35:00,28.0,14.3,30.04,WSW,250,0.0,0.0,56,0.00,BKN,,0.00,WeatherDisplay:10.37,2013-01-21 16:35:00,
2013-01-21 11:40:00,28.0,14.3,30.04,WSW,250,0.0,0.0,56,0.00,BKN,,0.00,WeatherDisplay:10.37,2013-01-21 16:40:00,
2013-01-21 11:45:00,28.0,14.3,30.01,WSW,250,0.0,0.0,56,0.00,BKN,,0.00,WeatherDisplay:10.37,2013-01-21 16:45:00,
2013-01-21 11:50:00,28.8,15.0,30.01,WSW,250,0.0,0.0,56,0.00,BKN,,0.00,WeatherDisplay:10.37,2013-01-21 16:50:00,
2013-01-21 11:55:00,28.8,15.0,30.01,WSW,250,0.0,0.0,56,0.00,BKN,,0.00,WeatherDisplay:10.37,2013-01-21 16:55:00,
2013-01-21 12:00:00,28.6,14.9,30.01,WSW,250,0.0,0.0,56,0.00,BKN,,0.00,WeatherDisplay:10.37,2013-01-21 17:00:00,
2013-01-21 12:05:00,28.6,11.8,30.01,South,180,3.5,3.5,49,0.00,OVC,,0.00,WeatherDisplay:10.37,2013-01-21 17:05:00,
2013-01-21 12:10:00,28.6,11.8,30.01,South,180,3.5,3.5,49,0.00,OVC,,0.00,WeatherDisplay:10.37,2013-01-21 17:10:00,
2013-01-21 12:15:00,28.6,11.8,29.98,South,180,3.5,3.5,49,0.00,OVC,,0.00,WeatherDisplay:10.37,2013-01-21 17:15:00,
2013-01-21 12:20:00,28.8,12.0,29.98,South,180,3.5,3.5,49,0.00,OVC,,0.00,WeatherDisplay:10.37,2013-01-21 17:20:00,
2013-01-21 12:25:00,28.6,11.8,29.98,South,180,3.5,3.5,49,0.00,OVC,,0.00,WeatherDisplay:10.37,2013-01-21 17:25:00,
2013-01-21 12:30:00,28.8,12.0,29.98,South,180,3.5,3.5,49,0.00,OVC,,0.00,WeatherDisplay:10.37,2013-01-21 17:30:00,
2013-01-21 12:35:00,28.9,12.1,29.98,South,180,3.5,3.5,49,0.00,OVC,,0.00,WeatherDisplay:10.37,2013-01-21 17:35:00,
2013-01-21 12:40:00,28.8,12.0,29.98,South,180,3.5,3.5,49,0.00,OVC,,0.00,WeatherDisplay:10.37,2013-01-21 17:40:00,
2013-01-21 12:45:00,28.8,12.0,29.98,South,180,3.5,3.5,49,0.00,OVC,,0.00,WeatherDisplay:10.37,2013-01-21 17:45:00,
2013-01-21 12:50:00,28.6,11.8,29.98,South,180,3.5,3.5,49,0.00,OVC,,0.00,WeatherDisplay:10.37,2013-01-21 17:50:00,
2013-01-21 12:55:00,28.8,12.0,29.98,South,180,3.5,3.5,49,0.00,OVC,,0.00,WeatherDisplay:10.37,2013-01-21 17:55:00,
2013-01-21 13:00:00,28.8,12.0,29.98,South,180,3.5,3.5,49,0.00,OVC,,0.00,WeatherDisplay:10.37,2013-01-21 18:00:00,
2013-01-21 13:05:00,28.8,12.9,29.98,SE,140,6.9,6.9,51,0.00,OVC,,0.00,WeatherDisplay:10.37,2013-01-21 18:05:00,
2013-01-21 13:10:00,28.9,13.1,29.98,SE,140,6.9,6.9,51,0.00,OVC,,0.00,WeatherDisplay:10.37,2013-01-21 18:10:00,
2013-01-21 13:15:00,28.9,13.1,29.95,SE,140,6.9,6.9,51,0.00,OVC,,0.00,WeatherDisplay:10.37,2013-01-21 18:15:00,
2013-01-21 13:20:00,29.1,13.2,29.95,SE,140,6.9,6.9,51,0.00,OVC,,0.00,WeatherDisplay:10.37,2013-01-21 18:20:00,
2013-01-21 13:25:00,28.9,13.1,29.95,SE,140,6.9,6.9,51,0.00,OVC,,0.00,WeatherDisplay:10.37,2013-01-21 18:25:00,
2013-01-21 13:30:00,28.6,12.7,29.95,SE,140,6.9,6.9,51,0.00,OVC,,0.00,WeatherDisplay:10.37,2013-01-21 18:30:00,
2013-01-21 13:35:00,28.8,12.9,29.95,SE,140,6.9,6.9,51,0.00,OVC,,0.00,WeatherDisplay:10.37,2013-01-21 18:35:00,
2013-01-21 13:40:00,28.6,12.7,29.95,SE,140,6.9,6.9,51,0.00,OVC,,0.00,WeatherDisplay:10.37,2013-01-21 18:40:00,
2013-01-21 13:45:00,29.1,13.2,29.95,SE,140,6.9,6.9,51,0.00,OVC,,0.00,WeatherDisplay:10.37,2013-01-21 18:45:00,
2013-01-21 13:50:00,28.9,13.1,29.95,SE,140,6.9,6.9,51,0.00,OVC,,0.00,WeatherDisplay:10.37,2013-01-21 18:50:00,
2013-01-21 13:55:00,28.8,12.9,29.95,SE,140,6.9,6.9,51,0.00,OVC,,0.00,WeatherDisplay:10.37,2013-01-21 18:55:00,
2013-01-21 14:00:00,28.8,12.9,29.95,SE,140,6.9,6.9,51,0.00,OVC,,0.00,WeatherDisplay:10.37,2013-01-21 19:00:00,
2013-01-21 14:05:00,28.8,12.0,29.95,SSE,150,8.1,8.1,49,0.00,OVC,,0.00,WeatherDisplay:10.37,2013-01-21 19:05:00,
2013-01-21 14:10:00,28.9,12.1,29.95,SSE,150,8.1,8.1,49,0.00,OVC,,0.00,WeatherDisplay:10.37,2013-01-21 19:10:00,
2013-01-21 14:16:00,28.6,11.8,29.95,SSE,150,8.1,8.1,49,0.00,OVC,,0.00,WeatherDisplay:10.37,2013-01-21 19:16:00,
2013-01-21 14:21:00,28.9,12.1,29.95,SSE,150,8.1,8.1,49,0.00,OVC,,0.00,WeatherDisplay:10.37,2013-01-21 19:21:00,
2013-01-21 14:26:00,28.6,11.8,29.95,SSE,150,8.1,8.1,49,0.00,OVC,,0.00,WeatherDisplay:10.37,2013-01-21 19:26:00,
2013-01-21 14:31:00,28.6,11.8,29.92,SSE,150,8.1,8.1,49,0.00,OVC,,0.00,WeatherDisplay:10.37,2013-01-21 19:31:00,
2013-01-21 14:36:00,28.6,11.8,29.92,SSE,150,8.1,8.1,49,0.00,OVC,,0.00,WeatherDisplay:10.37,2013-01-21 19:36:00,
2013-01-21 14:41:00,28.6,11.8,29.92,SSE,150,8.1,8.1,49,0.00,OVC,,0.00,WeatherDisplay:10.37,2013-01-21 19:41:00,
2013-01-21 14:46:00,28.4,11.6,29.92,SSE,150,8.1,8.1,49,0.00,OVC,,0.00,WeatherDisplay:10.37,2013-01-21 19:46:00,
2013-01-21 14:51:00,28.2,11.5,29.92,SSE,150,8.1,8.1,49,0.00,OVC,,0.00,WeatherDisplay:10.37,2013-01-21 19:51:00,
2013-01-21 14:56:00,28.4,11.6,29.92,SSE,150,8.1,8.1,49,0.00,OVC,,0.00,WeatherDisplay:10.37,2013-01-21 19:56:00,
2013-01-21 15:01:00,28.4,11.6,29.92,SSE,160,10.4,10.4,49,0.00,OVC,,0.00,WeatherDisplay:10.37,2013-01-21 20:01:00,
2013-01-21 15:06:00,28.4,11.6,29.92,SSE,160,10.4,10.4,49,0.00,OVC,,0.00,WeatherDisplay:10.37,2013-01-21 20:06:00,
2013-01-21 15:11:00,28.0,11.3,29.92,SSE,160,10.4,10.4,49,0.00,OVC,,0.00,WeatherDisplay:10.37,2013-01-21 20:11:00,
2013-01-21 15:16:00,27.7,11.0,29.92,SSE,160,10.4,10.4,49,0.00,OVC,,0.00,WeatherDisplay:10.37,2013-01-21 20:16:00,
2013-01-21 15:21:00,27.9,11.1,29.92,SSE,160,10.4,10.4,49,0.00,OVC,,0.00,WeatherDisplay:10.37,2013-01-21 20:21:00,
2013-01-21 15:26:00,27.7,11.0,29.92,SSE,160,10.4,10.4,49,0.00,OVC,,0.00,WeatherDisplay:10.37,2013-01-21 20:26:00,
2013-01-21 15:31:00,27.7,11.0,29.92,SSE,160,10.4,10.4,49,0.00,OVC,,0.00,WeatherDisplay:10.37,2013-01-21 20:31:00,
2013-01-21 15:36:00,27.5,10.8,29.92,SSE,160,10.4,10.4,49,0.00,OVC,,0.00,WeatherDisplay:10.37,2013-01-21 20:36:00,
2013-01-21 15:41:00,27.7,11.0,29.92,SSE,160,10.4,10.4,49,0.00,OVC,,0.00,WeatherDisplay:10.37,2013-01-21 20:41:00,
2013-01-21 15:46:00,27.7,11.0,29.92,SSE,160,10.4,10.4,49,0.00,OVC,,0.00,WeatherDisplay:10.37,2013-01-21 20:46:00,
2013-01-21 15:51:00,27.5,10.8,29.92,SSE,160,10.4,10.4,49,0.00,OVC,,0.00,WeatherDisplay:10.37,2013-01-21 20:51:00,
2013-01-21 15:56:00,27.5,10.8,29.89,SSE,160,10.4,10.4,49,0.00,OVC,,0.00,WeatherDisplay:10.37,2013-01-21 20:56:00,
2013-01-21 16:01:00,27.3,14.9,29.89,South,170,5.8,10.4,59,0.00,OVC,,0.00,WeatherDisplay:10.37,2013-01-21 21:01:00,
2013-01-21 16:06:00,27.3,14.9,29.89,South,170,5.8,5.8,59,0.00,OVC,,0.00,WeatherDisplay:10.37,2013-01-21 21:06:00,
2013-01-21 16:11:00,27.3,14.9,29.89,South,170,5.8,5.8,59,0.00,OVC,,0.00,WeatherDisplay:10.37,2013-01-21 21:11:00,
2013-01-21 16:16:00,27.1,14.7,29.89,South,170,5.8,5.8,59,0.00,OVC,,0.00,WeatherDisplay:10.37,2013-01-21 21:16:00,
2013-01-21 16:21:00,27.0,14.5,29.89,South,170,5.8,5.8,59,0.00,OVC,,0.00,WeatherDisplay:10.37,2013-01-21 21:21:00,
2013-01-21 16:26:00,27.0,14.5,29.89,South,170,5.8,5.8,59,0.00,OVC,,0.00,WeatherDisplay:10.37,2013-01-21 21:26:00,
2013-01-21 16:31:00,27.0,14.5,29.89,South,170,5.8,5.8,59,0.00,OVC,,0.00,WeatherDisplay:10.37,2013-01-21 21:31:00,
2013-01-21 16:36:00,27.0,14.5,29.89,South,170,5.8,5.8,59,0.00,OVC,,0.00,WeatherDisplay:10.37,2013-01-21 21:36:00,
2013-01-21 16:41:00,27.0,14.5,29.89,South,170,5.8,5.8,59,0.00,OVC,,0.00,WeatherDisplay:10.37,2013-01-21 21:41:00,
2013-01-21 16:46:00,27.0,14.5,29.89,South,170,5.8,5.8,59,0.00,OVC,,0.00,WeatherDisplay:10.37,2013-01-21 21:46:00,
2013-01-21 16:51:00,26.8,14.4,29.89,South,170,5.8,5.8,59,0.00,OVC,,0.00,WeatherDisplay:10.37,2013-01-21 21:51:00,
2013-01-21 16:56:00,26.8,14.4,29.89,South,170,5.8,5.8,59,0.00,OVC,,0.00,WeatherDisplay:10.37,2013-01-21 21:56:00,
2013-01-21 17:01:00,26.8,13.6,29.89,SE,130,5.8,5.8,57,0.00,OVC,,0.00,WeatherDisplay:10.37,2013-01-21 22:01:00,
2013-01-21 17:06:00,26.8,13.6,29.89,SE,130,5.8,5.8,57,0.00,OVC,,0.00,WeatherDisplay:10.37,2013-01-21 22:06:00,
2013-01-21 17:11:00,26.8,13.6,29.89,SE,130,5.8,5.8,57,0.00,OVC,,0.00,WeatherDisplay:10.37,2013-01-21 22:11:00,
2013-01-21 17:16:00,26.8,13.6,29.89,SE,130,5.8,5.8,57,0.00,OVC,,0.00,WeatherDisplay:10.37,2013-01-21 22:16:00,
2013-01-21 17:21:00,26.8,13.6,29.89,SE,130,5.8,5.8,57,0.00,OVC,,0.00,WeatherDisplay:10.37,2013-01-21 22:21:00,
2013-01-21 17:26:00,26.8,13.6,29.89,SE,130,5.8,5.8,57,0.00,OVC,,0.00,WeatherDisplay:10.37,2013-01-21 22:26:00,
2013-01-21 17:31:00,26.8,13.6,29.89,SE,130,5.8,5.8,57,0.00,OVC,,0.00,WeatherDisplay:10.37,2013-01-21 22:31:00,
2013-01-21 17:36:00,26.8,13.6,29.89,SE,130,5.8,5.8,57,0.00,OVC,,0.00,WeatherDisplay:10.37,2013-01-21 22:36:00,
2013-01-21 17:41:00,26.8,13.6,29.89,SE,130,5.8,5.8,57,0.00,OVC,,0.00,WeatherDisplay:10.37,2013-01-21 22:41:00,
2013-01-21 17:47:00,26.6,13.4,29.89,SE,130,5.8,5.8,57,0.00,OVC,,0.00,WeatherDisplay:10.37,2013-01-21 22:47:00,
2013-01-21 17:52:00,26.6,13.4,29.89,SE,130,5.8,5.8,57,0.00,OVC,,0.00,WeatherDisplay:10.37,2013-01-21 22:52:00,
2013-01-21 17:57:00,26.4,13.2,29.89,SE,130,5.8,5.8,57,0.00,OVC,,0.00,WeatherDisplay:10.37,2013-01-21 22:57:00,
2013-01-21 18:02:00,26.4,15.9,29.89,SSE,150,8.1,8.1,64,0.00,-SN,,0.00,WeatherDisplay:10.37,2013-01-21 23:02:00,
2013-01-21 18:07:00,26.4,15.9,29.89,SSE,150,8.1,8.1,64,0.00,-SN,,0.00,WeatherDisplay:10.37,2013-01-21 23:07:00,
2013-01-21 18:12:00,26.4,15.9,29.89,SSE,150,8.1,8.1,64,0.00,-SN,,0.00,WeatherDisplay:10.37,2013-01-21 23:12:00,
2013-01-21 18:17:00,26.4,15.9,29.89,SSE,150,8.1,8.1,64,0.00,-SN,,0.00,WeatherDisplay:10.37,2013-01-21 23:17:00,
2013-01-21 18:22:00,26.4,15.9,29.89,SSE,150,8.1,8.1,64,0.00,-SN,,0.00,WeatherDisplay:10.37,2013-01-21 23:22:00,
2013-01-21 18:27:00,26.4,15.9,29.89,SSE,150,8.1,8.1,64,0.00,-SN,,0.00,WeatherDisplay:10.37,2013-01-21 23:27:00,
2013-01-21 18:32:00,26.2,15.7,29.89,SSE,150,8.1,8.1,64,0.00,-SN,,0.00,WeatherDisplay:10.37,2013-01-21 23:32:00,
2013-01-21 18:37:00,26.2,15.7,29.89,SSE,150,8.1,8.1,64,0.00,-SN,,0.00,WeatherDisplay:10.37,2013-01-21 23:37:00,
2013-01-21 18:42:00,26.1,15.5,29.89,SSE,150,8.1,8.1,64,0.00,-SN,,0.00,WeatherDisplay:10.37,2013-01-21 23:42:00,
2013-01-21 18:47:00,26.1,15.5,29.89,SSE,150,8.1,8.1,64,0.00,-SN,,0.00,WeatherDisplay:10.37,2013-01-21 23:47:00,
2013-01-21 18:52:00,26.1,15.5,29.89,SSE,150,8.1,8.1,64,0.00,-SN,,0.00,WeatherDisplay:10.37,2013-01-21 23:52:00,
2013-01-21 18:57:00,26.1,15.5,29.89,SSE,150,8.1,8.1,64,0.00,-SN,,0.00,WeatherDisplay:10.37,2013-01-21 23:57:00,
2013-01-21 19:02:00,26.1,17.6,29.89,South,180,5.8,8.1,70,0.00,-SN,,0.00,WeatherDisplay:10.37,2013-01-22 00:02:00,
2013-01-21 19:07:00,25.9,17.4,29.89,South,180,5.8,5.8,70,0.00,-SN,,0.00,WeatherDisplay:10.37,2013-01-22 00:07:00,
2013-01-21 19:12:00,25.9,17.4,29.89,South,180,5.8,5.8,70,0.00,-SN,,0.00,WeatherDisplay:10.37,2013-01-22 00:12:00,
2013-01-21 19:17:00,25.9,17.4,29.89,South,180,5.8,5.8,70,0.00,-SN,,0.00,WeatherDisplay:10.37,2013-01-22 00:17:00,
2013-01-21 19:22:00,25.9,17.4,29.89,South,180,5.8,5.8,70,0.00,-SN,,0.00,WeatherDisplay:10.37,2013-01-22 00:22:00,
2013-01-21 19:27:00,25.7,17.3,29.89,South,180,5.8,5.8,70,0.00,-SN,,0.00,WeatherDisplay:10.37,2013-01-22 00:27:00,
2013-01-21 19:32:00,25.5,17.1,29.89,South,180,5.8,5.8,70,0.00,-SN,,0.00,WeatherDisplay:10.37,2013-01-22 00:32:00,
2013-01-21 19:37:00,25.3,16.9,29.89,South,180,5.8,5.8,70,0.00,-SN,,0.00,WeatherDisplay:10.37,2013-01-22 00:37:00,
2013-01-21 19:42:00,25.3,16.9,29.89,South,180,5.8,5.8,70,0.00,-SN,,0.00,WeatherDisplay:10.37,2013-01-22 00:42:00,
2013-01-21 19:47:00,25.2,16.7,29.89,South,180,5.8,5.8,70,0.00,-SN,,0.00,WeatherDisplay:10.37,2013-01-22 00:47:00,
2013-01-21 19:52:00,25.0,16.6,29.89,South,180,5.8,5.8,70,0.00,-SN,,0.00,WeatherDisplay:10.37,2013-01-22 00:52:00,
2013-01-21 19:57:00,25.0,16.6,29.89,South,180,5.8,5.8,70,0.00,-SN,,0.00,WeatherDisplay:10.37,2013-01-22 00:57:00,
2013-01-21 20:02:00,24.8,17.7,29.89,SSE,160,4.6,5.8,74,0.00,BKN,,0.00,WeatherDisplay:10.37,2013-01-22 01:02:00,
2013-01-21 20:07:00,24.8,17.7,29.89,SSE,160,4.6,4.6,74,0.00,BKN,,0.00,WeatherDisplay:10.37,2013-01-22 01:07:00,
2013-01-21 20:12:00,24.6,17.5,29.89,SSE,160,4.6,4.6,74,0.00,BKN,,0.00,WeatherDisplay:10.37,2013-01-22 01:12:00,
2013-01-21 20:17:00,24.4,17.3,29.89,SSE,160,4.6,4.6,74,0.00,BKN,,0.00,WeatherDisplay:10.37,2013-01-22 01:17:00,
2013-01-21 20:22:00,24.4,17.3,29.89,SSE,160,4.6,4.6,74,0.00,BKN,,0.00,WeatherDisplay:10.37,2013-01-22 01:22:00,
2013-01-21 20:27:00,24.4,17.3,29.89,SSE,160,4.6,4.6,74,0.00,BKN,,0.00,WeatherDisplay:10.37,2013-01-22 01:27:00,
2013-01-21 20:32:00,24.3,17.2,29.86,SSE,160,4.6,4.6,74,0.00,BKN,,0.00,WeatherDisplay:10.37,2013-01-22 01:32:00,
2013-01-21 20:37:00,24.1,17.0,29.86,SSE,160,4.6,4.6,74,0.00,BKN,,0.00,WeatherDisplay:10.37,2013-01-22 01:37:00,
2013-01-21 20:42:00,24.1,17.0,29.86,SSE,160,4.6,4.6,74,0.00,BKN,,0.00,WeatherDisplay:10.37,2013-01-22 01:42:00,
2013-01-21 20:47:00,24.1,17.0,29.86,SSE,160,4.6,4.6,74,0.00,BKN,,0.00,WeatherDisplay:10.37,2013-01-22 01:47:00,
2013-01-21 20:52:00,23.9,16.8,29.86,SSE,160,4.6,4.6,74,0.00,BKN,,0.00,WeatherDisplay:10.37,2013-01-22 01:52:00,
2013-01-21 20:57:00,23.9,16.8,29.86,SSE,160,4.6,4.6,74,0.00,BKN,,0.00,WeatherDisplay:10.37,2013-01-22 01:57:00,
2013-01-21 21:02:00,23.9,18.9,29.86,South,180,5.8,5.8,81,0.00,SCT,,0.00,WeatherDisplay:10.37,2013-01-22 02:02:00,
2013-01-21 21:07:00,23.9,18.9,29.86,South,180,5.8,5.8,81,0.00,SCT,,0.00,WeatherDisplay:10.37,2013-01-22 02:07:00,
2013-01-21 21:12:00,24.1,19.1,29.86,South,180,5.8,5.8,81,0.00,SCT,,0.00,WeatherDisplay:10.37,2013-01-22 02:12:00,
2013-01-21 21:17:00,24.3,19.3,29.86,South,180,5.8,5.8,81,0.00,SCT,,0.00,WeatherDisplay:10.37,2013-01-22 02:17:00,
2013-01-21 21:22:00,24.3,19.3,29.86,South,180,5.8,5.8,81,0.00,SCT,,0.00,WeatherDisplay:10.37,2013-01-22 02:22:00,
2013-01-21 21:27:00,24.3,19.3,29.86,South,180,5.8,5.8,81,0.00,SCT,,0.00,WeatherDisplay:10.37,2013-01-22 02:27:00,
2013-01-21 21:32:00,24.3,19.3,29.86,South,180,5.8,5.8,81,0.00,SCT,,0.00,WeatherDisplay:10.37,2013-01-22 02:32:00,
2013-01-21 21:37:00,24.3,19.3,29.86,South,180,5.8,5.8,81,0.00,SCT,,0.00,WeatherDisplay:10.37,2013-01-22 02:37:00,
2013-01-21 21:42:00,24.3,19.3,29.83,South,180,5.8,5.8,81,0.00,SCT,,0.00,WeatherDisplay:10.37,2013-01-22 02:42:00,
2013-01-21 21:47:00,24.3,19.3,29.83,South,180,5.8,5.8,81,0.00,SCT,,0.00,WeatherDisplay:10.37,2013-01-22 02:47:00,
2013-01-21 21:52:00,24.3,19.3,29.83,South,180,5.8,5.8,81,0.00,SCT,,0.00,WeatherDisplay:10.37,2013-01-22 02:52:00,
2013-01-21 21:57:00,24.3,19.3,29.83,South,180,5.8,5.8,81,0.00,SCT,,0.00,WeatherDisplay:10.37,2013-01-22 02:57:00,
2013-01-21 22:02:00,24.4,18.3,29.83,SW,230,11.5,11.5,77,0.12,RA,,0.12,WeatherDisplay:10.37,2013-01-22 03:02:00,
2013-01-21 22:07:00,24.4,18.3,29.83,SW,230,11.5,11.5,77,0.12,RA,,0.12,WeatherDisplay:10.37,2013-01-22 03:07:00,
2013-01-21 22:12:00,24.4,18.3,29.83,SW,230,11.5,11.5,77,0.12,SCT,,0.12,WeatherDisplay:10.37,2013-01-22 03:12:00,
2013-01-21 22:17:00,24.1,17.9,29.83,SW,230,11.5,11.5,77,0.12,SCT,,0.12,WeatherDisplay:10.37,2013-01-22 03:17:00,
2013-01-21 22:22:00,24.1,17.9,29.83,SW,230,11.5,11.5,77,0.12,SCT,,0.12,WeatherDisplay:10.37,2013-01-22 03:22:00,
2013-01-21 22:27:00,23.9,17.7,29.83,SW,230,11.5,11.5,77,0.12,SCT,,0.12,WeatherDisplay:10.37,2013-01-22 03:27:00,
2013-01-21 22:32:00,23.9,17.7,29.83,SW,230,11.5,11.5,77,0.12,SCT,,0.12,WeatherDisplay:10.37,2013-01-22 03:32:00,
2013-01-21 22:37:00,23.7,17.6,29.83,SW,230,11.5,11.5,77,0.12,SCT,,0.12,WeatherDisplay:10.37,2013-01-22 03:37:00,
2013-01-21 22:42:00,23.5,17.4,29.83,SW,230,11.5,11.5,77,0.12,SCT,,0.12,WeatherDisplay:10.37,2013-01-22 03:42:00,
2013-01-21 22:47:00,23.5,17.4,29.83,SW,230,11.5,11.5,77,0.12,SCT,,0.12,WeatherDisplay:10.37,2013-01-22 03:47:00,
2013-01-21 22:52:00,23.4,17.2,29.83,SW,230,11.5,11.5,77,0.12,SCT,,0.12,WeatherDisplay:10.37,2013-01-22 03:52:00,
2013-01-21 22:57:00,23.2,17.0,29.83,SW,230,11.5,11.5,77,0.12,SCT,,0.12,WeatherDisplay:10.37,2013-01-22 03:57:00,
2013-01-21 23:02:00,23.2,17.0,29.83,SW,230,11.5,11.5,77,0.00,SCT,,0.12,WeatherDisplay:10.37,2013-01-22 04:02:00,
2013-01-21 23:07:00,22.8,16.7,29.83,SW,230,11.5,11.5,77,0.00,SCT,,0.12,WeatherDisplay:10.37,2013-01-22 04:07:00,
2013-01-21 23:12:00,22.8,16.7,29.83,SW,230,11.5,11.5,77,0.00,SCT,,0.12,WeatherDisplay:10.37,2013-01-22 04:12:00,
2013-01-21 23:17:00,22.6,16.5,29.83,West,280,8.1,11.5,77,0.00,BKN,,0.12,WeatherDisplay:10.37,2013-01-22 04:17:00,
2013-01-21 23:22:00,22.5,16.3,29.83,West,280,8.1,8.1,77,0.00,BKN,,0.12,WeatherDisplay:10.37,2013-01-22 04:22:00,
2013-01-21 23:27:00,22.5,16.3,29.83,West,280,8.1,8.1,77,0.00,BKN,,0.12,WeatherDisplay:10.37,2013-01-22 04:27:00,
2013-01-21 23:32:00,22.3,16.2,29.83,West,280,8.1,8.1,77,0.00,BKN,,0.12,WeatherDisplay:10.37,2013-01-22 04:32:00,
2013-01-21 23:37:00,22.1,16.0,29.83,West,280,8.1,8.1,77,0.00,BKN,,0.12,WeatherDisplay:10.37,2013-01-22 04:37:00,
2013-01-21 23:42:00,21.9,15.8,29.83,West,280,8.1,8.1,77,0.00,BKN,,0.12,WeatherDisplay:10.37,2013-01-22 04:42:00,
2013-01-21 23:47:00,21.7,15.6,29.83,West,280,8.1,8.1,77,0.00,BKN,,0.12,WeatherDisplay:10.37,2013-01-22 04:47:00,
2013-01-21 23:52:00,21.7,15.6,29.83,West,280,8.1,8.1,77,0.00,BKN,,0.12,WeatherDisplay:10.37,2013-01-22 04:52:00,
2013-01-21 23:57:00,21.6,15.5,29.83,West,280,8.1,8.1,77,0.00,BKN,,0.12,WeatherDisplay:10.37,2013-01-22 04:57:00,